TimeCDT,TemperatureF,Dew PointF,Humidity,Sea Level PressureIn,VisibilityMPH,Wind Direction,Wind SpeedMPH,Gust SpeedMPH,PrecipitationIn,Events,Conditions,WindDirDegrees,DateUTC
12:58 AM,68.0,62.1,81,29.99,10.0,South,6.9,-,N/A,,Clear,170,2013-04-10 05:58:00
1:58 AM,64.9,62.1,90,30.01,10.0,South,4.6,-,N/A,,Clear,190,2013-04-10 06:58:00
2:58 AM,63.0,61.0,93,29.97,10.0,Calm,Calm,-,N/A,,Clear,0,2013-04-10 07:58:00
3:58 AM,60.1,59.0,96,29.98,8.0,Calm,Calm,-,N/A,,Clear,0,2013-04-10 08:58:00
4:58 AM,64.0,61.0,90,29.95,10.0,SSE,8.1,-,N/A,,Clear,150,2013-04-10 09:58:00
5:58 AM,64.0,60.1,87,29.95,10.0,South,8.1,-,N/A,,Clear,170,2013-04-10 10:58:00
6:58 AM,63.0,59.0,87,29.96,10.0,South,5.8,-,N/A,,Clear,190,2013-04-10 11:58:00
7:58 AM,66.9,60.1,79,29.97,10.0,South,9.2,-,N/A,,Clear,170,2013-04-10 12:58:00
8:58 AM,71.1,61.0,70,29.98,10.0,SSE,15.0,-,N/A,,Clear,160,2013-04-10 13:58:00
9:58 AM,75.9,63.0,64,29.98,10.0,South,15.0,21.9,N/A,,Clear,180,2013-04-10 14:58:00
10:58 AM,78.1,62.1,58,29.99,10.0,South,10.4,-,N/A,,Clear,190,2013-04-10 15:58:00
11:58 AM,82.0,63.0,52,29.98,10.0,SSW,11.5,-,N/A,,Clear,200,2013-04-10 16:58:00
12:58 PM,82.9,62.1,49,29.97,10.0,South,17.3,20.7,N/A,,Mostly Cloudy,180,2013-04-10 17:58:00
1:58 PM,82.9,64.0,53,29.96,9.0,South,11.5,-,N/A,,Mostly Cloudy,180,2013-04-10 18:58:00
2:58 PM,82.0,64.0,54,29.94,10.0,South,12.7,21.9,N/A,,Mostly Cloudy,170,2013-04-10 19:58:00
3:58 PM,84.0,64.0,51,29.90,10.0,South,17.3,24.2,N/A,,Mostly Cloudy,170,2013-04-10 20:58:00
4:58 PM,82.0,63.0,52,29.88,10.0,South,20.7,25.3,N/A,,Scattered Clouds,180,2013-04-10 21:58:00
5:58 PM,80.1,64.0,58,29.88,10.0,South,16.1,21.9,N/A,,Partly Cloudy,190,2013-04-10 22:58:00
6:58 PM,77.0,64.0,64,29.87,10.0,South,9.2,-,N/A,,Scattered Clouds,170,2013-04-10 23:58:00
7:58 PM,75.0,64.0,69,29.86,10.0,SSE,10.4,-,N/A,,Partly Cloudy,160,2013-04-11 00:58:00
8:58 PM,73.0,64.0,73,29.86,10.0,South,10.4,-,N/A,,Clear,170,2013-04-11 01:58:00
9:58 PM,72.0,64.0,76,29.87,10.0,South,12.7,20.7,N/A,,Partly Cloudy,170,2013-04-11 02:58:00
10:58 PM,71.1,64.0,78,29.87,10.0,South,13.8,-,N/A,,Mostly Cloudy,170,2013-04-11 03:58:00
11:58 PM,70.0,64.9,84,29.85,10.0,South,10.4,19.6,N/A,,Clear,170,2013-04-11 04:58:00